Probability
1 2 3 5 6 5 5 5 4 3 3 5 5 4 3 4 4 2 2 2 3 1 1 0 0 0 0 0 0 0 1 1 1 0 0 0 2 5 8 7 7 7 9
0 1 1 2 3 3 2 3 3 2 2 3 3 2 1 1 1 1 1 1 1 1 1 0 0 0 0 0 0 0 0 0 0 0 0 0 1 3 5 6 5 6 6
0 0 0 0 1 1 1 1 1 1 1 1 1 0 0 0 0 0 0 0 0 0 0 0 0 0 0 0 0 0 0 0 0 0 0 1 0 0 1 2 2 2 2
0 0 0 0 1 2 2 1 0 0 0 0 0 0 0 0 0 0 0 0 0 0 0 0 0 0 0 0 0 0 0 0 0 0 0 0 0 0 0 0 0 0 0
0 0 0 0 1 2 3 1 0 0 0 0 0 0 0 0 0 0 0 0 0 0 0 0 0 0 0 0 0 0 0 0 0 0 0 0 0 0 0 0 0 0 0
0 0 0 0 1 2 2 1 0 0 0 0 0 0 0 0 0 0 0 0 0 0 0 0 0 0 0 0 0 0 0 0 0 0 0 0 0 0 0 0 0 0 0
0 0 0 0 0 1 1 0 0 0 0 0 0 0 0 0 0 0 0 0 0 0 0 0 0 0 0 0 0 0 0 0 0 0 0 0 0 0 0 0 0 0 0
0 0 0 0 0 0 0 0 0 0 0 0 0 0 0 0 0 0 0 0 0 0 0 0 0 0 0 0 0 0 0 0 0 0 0 0 0 0 0 0 0 0 0
0 0 0 0 0 0 0 0 0 0 0 0 0 0 0 0 0 0 0 0 0 0 0 0 0 0 0 0 0 0 0 0 0 0 0 0 0 0 0 0 0 0 0
0 0 0 0 0 0 0 0 0 0 0 0 0 0 0 0 0 0 0 0 0 0 0 0 0 0 0 0 0 0 0 0 0 0 0 0 0 0 0 0 0 0 0
0 0 0 0 0 0 0 0 0 0 0 0 0 0 0 0 0 0 0 0 0 0 0 0 0 0 0 0 0 0 0 0 0 0 0 0 0 0 0 0 0 0 0
0 0 0 0 0 0 0 0 0 0 0 0 0 0 0 0 0 0 0 0 0 0 0 0 0 0 0 0 0 0 0 0 0 0 0 0 0 0 0 0 0 0 0
0 0 0 0 0 0 0 0 0 0 0 0 0 0 0 0 0 0 0 0 0 0 0 0 0 0 0 0 0 0 0 0 0 0 0 0 0 0 0 0 0 0 0
0 0 0 0 0 0 0 0 0 0 0 0 0 0 0 0 0 0 0 0 0 0 0 0 0 0 0 0 0 0 0 0 0 0 0 0 0 0 0 0 0 0 0
0 0 0 0 0 0 0 0 0 0 0 0 0 0 0 0 0 0 0 0 0 0 0 0 0 0 0 0 0 0 0 0 0 0 0 0 0 0 0 0 0 0 0
0 0 0 0 0 0 0 0 0 0 0 0 0 0 0 0 0 0 0 0 0 0 0 0 0 0 0 0 0 0 0 0 0 0 0 0 0 0 0 0 0 0 0
0 0 0 0 0 0 0 0 0 0 0 0 0 0 0 0 0 0 0 0 0 0 0 0 0 0 0 0 0 0 0 0 0 0 0 0 0 0 0 0 0 0 0
0 0 0 0 0 0 0 0 0 0 0 0 0 0 0 0 0 0 0 0 0 0 0 0 0 0 0 0 0 0 0 0 0 0 0 0 0 0 0 0 0 0 0
0 0 0 0 0 0 0 0 0 0 0 0 0 0 0 0 0 0 0 0 0 0 0 0 0 0 0 0 0 0 0 0 0 0 0 0 0 0 0 0 0 0 0
0 0 0 0 0 0 0 0 0 0 0 0 0 0 0 0 0 0 0 0 0 0 0 0 0 0 0 0 0 0 0 0 0 0 0 0 0 0 0 0 0 0 0
0 0 0 0 0 0 0 0 0 0 0 0 0 0 0 0 0 0 0 0 0 0 0 0 0 0 0 0 0 0 0 0 0 0 0 0 0 0 0 0 0 0 0
0 0 0 0 0 0 0 0 0 0 0 0 0 0 0 0 0 0 0 0 0 0 0 0 0 0 0 0 0 0 0 0 0 0 0 0 0 0 0 0 0 0 0
0 0 0 0 0 0 0 0 0 0 0 0 0 0 0 0 0 0 0 0 0 0 0 0 0 0 0 0 0 0 0 0 0 0 0 0 0 0 0 0 0 0 0
0 0 0 0 0 0 0 0 0 0 0 0 0 0 0 0 0 0 0 0 0 0 0 0 0 0 0 0 0 0 0 0 0 0 0 0 0 0 0 0 0 0 0
0 0 0 0 0 0 0 0 0 0 0 0 0 0 0 0 0 0 0 0 0 0 0 0 0 0 0 0 0 0 0 0 0 0 0 0 0 0 0 0 0 0 0
0 0 0 0 0 0 0 0 0 0 0 0 0 0 0 0 0 0 0 0 0 0 0 0 0 0 0 0 0 0 0 0 0 0 0 0 0 0 0 0 0 0 0
Wind_Speed
3 4 4 5 4 4 4 4 4 3 3 3 2 2 2 2 3 2 2 1 1 1 1 1 1 2 2 3 3 2 3 3 2 3 3 4 6 7 7 7 7 9 11
4 4 4 4 4 4 4 4 4 3 3 2 1 1 0 1 1 2 3 3 3 3 2 3 3 3 2 3 3 3 2 3 2 2 2 3 3 5 8 6 7 9 8
7 6 6 6 5 6 6 6 5 4 4 3 2 2 2 3 3 3 3 3 4 4 4 4 4 4 3 3 4 3 3 3 3 2 2 2 3 3 3 5 6 6 6
7 7 7 7 7 7 6 5 5 4 3 3 2 2 1 1 2 2 3 5 5 5 5 4 4 4 4 4 4 3 3 3 3 2 3 3 2 2 3 2 3 5 6
9 9 8 8 6 5 4 4 4 3 3 3 3 2 1 2 2 3 4 4 5 5 5 4 3 4 3 4 4 3 3 2 3 2 2 2 3 3 2 3 3 2 3
7 6 4 3 2 3 4 4 4 3 3 3 3 3 3 4 3 4 4 4 3 4 5 4 3 3 3 4 4 4 3 3 3 3 3 2 2 2 2 3 3 2 3
4 4 4 4 3 4 4 3 4 2 2 3 3 3 4 4 4 4 4 4 3 4 5 5 3 3 3 4 4 4 4 4 4 4 3 3 3 2 2 2 2 2 2
4 5 4 4 4 4 4 3 3 2 2 2 3 4 4 3 3 4 4 4 4 4 5 5 4 4 4 5 4 3 4 4 4 5 4 3 3 3 3 2 2 2 2
5 5 4 4 4 4 3 3 2 1 2 3 3 4 4 4 4 5 4 4 4 5 5 5 5 5 5 5 4 4 5 4 5 5 5 4 3 3 3 3 3 2 2
5 4 4 4 3 3 2 2 2 2 2 3 3 3 4 4 5 4 5 5 6 5 6 6 6 6 6 5 5 4 5 5 5 4 5 5 4 3 3 3 3 3 3
5 4 4 3 3 2 2 1 1 2 2 3 4 4 4 5 5 5 6 6 6 6 6 6 6 6 6 6 5 6 6 6 6 6 6 6 5 4 3 3 3 4 3
5 4 4 2 2 1 2 2 2 3 3 4 4 4 5 5 5 6 7 6 7 6 7 6 7 7 7 6 6 7 7 6 7 7 6 7 5 5 4 3 4 4 4
4 3 2 1 2 3 3 3 4 4 4 4 4 5 5 6 6 7 7 7 7 7 7 7 7 8 8 7 7 7 7 7 8 7 7 7 7 7 5 5 4 4 4
4 3 2 2 3 4 4 4 4 4 4 4 4 6 6 7 7 7 7 7 7 7 7 7 8 8 8 8 8 8 8 8 8 8 8 8 8 8 7 6 6 5 4
4 3 2 3 3 4 4 4 4 4 4 4 5 6 7 6 7 7 7 7 7 8 7 7 8 8 7 8 9 8 9 8 8 7 7 8 11 12 10 7 6 5 4
3 2 1 2 4 4 4 4 4 5 4 5 6 7 6 6 7 7 7 7 7 7 7 8 8 9 9 11 13 10 7 7 7 7 7 8 10 12 15 14 12 10 7
3 2 2 3 4 4 4 4 5 5 5 6 6 6 6 7 7 8 7 8 8 7 8 8 8 9 11 15 16 17 10 8 8 8 7 8 8 9 7 11 14 13 12
3 3 3 3 4 3 3 4 4 5 5 6 6 7 7 8 8 8 8 8 7 7 7 8 8 9 11 14 15 16 11 8 9 9 9 8 7 7 7 7 7 7 8
4 4 3 3 3 4 4 4 5 5 6 6 7 7 7 8 9 9 9 8 8 8 8 8 8 9 11 13 14 13 6 7 9 9 9 9 8 11 11 7 7 6 6
3 3 2 1 2 4 4 4 5 6 6 7 7 7 7 8 9 10 9 8 7 8 8 8 8 8 9 11 13 12 5 7 7 7 8 12 11 12 13 8 8 8 6
3 3 1 1 4 4 3 4 5 6 7 7 7 8 8 8 9 8 7 8 8 8 7 8 8 7 8 10 11 10 5 6 6 5 5 6 12 14 14 11 8 10 8
3 2 1 3 4 4 3 5 6 6 6 6 7 8 8 8 8 8 8 8 7 7 7 6 7 5 6 6 7 9 8 7 5 5 5 6 11 13 13 10 9 11 9
3 2 2 3 4 4 3 5 6 6 6 6 8 8 9 8 7 7 8 7 6 5 5 5 5 5 4 4 6 7 6 7 4 4 6 7 9 10 8 10 11 10 6
3 2 2 3 5 5 5 5 6 5 5 7 8 8 8 9 9 6 5 6 6 5 5 4 4 5 4 4 3 3 2 2 3 2 2 4 6 5 6 6 6 5 5
3 3 3 4 5 5 5 6 5 4 5 7 7 8 7 8 8 7 6 6 6 5 5 4 4 4 5 5 6 4 2 2 2 2 1 2 3 3 3 3 3 3 4
4 3 3 4 5 5 5 5 4 4 5 6 7 6 6 7 6 7 8 8 8 9 8 7 6 5 7 8 7 5 4 4 5 3 2 2 3 4 4 5 4 4 4
Wind_Direction
138 130 132 128 124 117 110 108 100 82 69 52 44 35 4 349 350 346 336 315 293 271 227 237 252 247 245 257 268 271 277 270 256 265 276 264 244 237 233 226 222 221 222
165 163 161 162 159 157 155 148 140 130 116 111 115 136 212 306 325 353 354 346 327 304 277 249 246 243 242 256 258 253 267 268 240 231 267 285 282 247 233 222 222 225 220
186 189 190 196 191 187 183 172 170 158 145 131 97 46 30 11 2 349 333 325 313 298 285 270 253 242 226 236 245 237 240 265 267 223 225 245 259 285 256 227 226 224 218
194 196 197 199 202 204 188 174 169 158 152 132 116 115 115 273 268 272 289 305 308 303 296 284 266 247 232 229 239 231 225 238 267 267 240 235 251 272 303 287 238 228 221
200 200 201 203 205 197 172 164 154 156 162 154 152 153 198 231 259 282 301 305 307 307 307 303 284 265 248 238 236 237 233 228 238 244 253 255 253 239 254 290 302 286 242
203 199 193 157 132 122 130 142 150 174 186 182 186 193 217 241 268 290 297 300 301 305 307 305 300 283 268 255 244 234 234 238 242 243 235 229 241 238 233 258 279 281 277
166 151 138 130 137 136 137 143 154 191 218 219 228 230 233 241 251 265 270 280 290 295 297 300 292 288 281 272 257 245 243 240 243 244 243 233 229 220 219 245 265 274 280
148 143 144 142 143 138 139 146 159 201 240 247 258 259 257 252 249 248 246 254 258 266 276 280 274 273 274 276 262 254 250 244 243 249 245 245 239 219 208 215 227 266 279
139 134 128 130 135 136 149 156 157 207 255 261 267 269 269 253 249 258 258 259 261 271 280 280 278 277 274 269 262 251 253 248 243 243 241 241 245 233 218 213 206 207 237
133 132 133 141 150 152 150 143 160 216 259 274 274 274 266 263 264 267 269 268 270 273 282 282 278 275 271 266 258 254 251 246 246 239 238 238 237 235 224 218 212 201 206
151 154 157 161 155 146 153 180 229 258 279 282 278 283 280 277 276 270 268 268 268 269 270 271 274 275 272 266 258 253 255 250 251 247 238 238 232 231 224 216 209 201 194
164 163 161 156 150 180 230 242 252 262 267 271 278 279 278 279 277 272 269 266 265 264 261 262 265 267 270 263 256 257 259 247 248 247 239 239 235 230 223 213 218 212 200
157 153 159 177 212 240 252 256 259 264 271 275 280 283 283 280 275 272 271 268 264 264 262 258 258 260 261 260 255 250 250 244 240 239 235 235 227 230 223 213 216 217 214
162 167 197 237 251 258 257 263 267 269 274 277 281 282 279 275 272 273 272 269 265 264 262 259 255 254 254 255 255 253 250 247 242 236 232 230 221 221 220 218 213 211 208
164 169 197 243 262 270 274 273 270 277 280 282 283 280 279 279 280 280 278 275 270 271 263 262 261 257 255 256 253 249 253 248 247 244 235 232 231 225 214 213 206 200 199
166 172 209 267 278 279 275 275 275 280 280 281 282 283 287 288 287 284 282 279 275 271 268 264 263 261 265 267 263 257 251 244 241 244 241 242 244 239 224 218 209 196 192
173 199 245 263 272 272 266 271 273 281 289 287 288 290 289 289 286 289 290 282 278 273 271 267 262 260 261 262 262 261 254 241 237 233 231 243 242 229 219 218 217 211 205
190 229 252 266 272 271 275 276 283 293 295 294 294 296 295 293 291 289 285 282 277 274 270 269 266 263 266 263 260 259 255 243 237 232 224 224 232 227 211 206 205 207 208
198 218 233 242 264 281 285 295 301 302 302 299 298 299 299 298 297 294 289 286 282 279 273 270 268 266 269 267 263 259 249 240 238 233 228 220 219 220 208 194 195 203 215
197 208 232 254 289 286 293 305 302 302 297 294 295 297 297 297 296 292 287 285 280 277 279 278 273 268 269 271 270 264 241 236 237 235 233 227 218 214 203 189 188 199 205
189 185 198 274 279 284 298 301 299 291 285 291 297 299 297 295 292 288 286 287 286 284 283 283 283 278 274 277 276 272 237 226 228 228 228 226 220 214 205 192 190 198 189
188 187 221 278 283 288 294 296 292 283 289 296 299 300 298 298 304 296 295 293 289 289 289 289 292 288 288 284 287 279 250 228 219 226 225 219 216 209 201 195 196 190 178
205 216 229 280 293 290 281 284 283 288 297 304 302 300 301 299 294 291 294 299 295 286 288 290 292 297 299 302 309 302 273 237 219 227 225 213 206 197 193 195 188 178 168
214 219 241 284 291 289 285 272 281 290 300 302 301 301 303 304 303 297 290 292 293 289 287 288 289 295 299 304 317 317 296 260 236 234 215 187 174 165 163 165 173 170 168
213 210 229 261 275 284 289 288 290 297 304 302 300 303 300 299 302 299 292 288 277 264 265 272 273 286 296 297 304 294 284 241 214 167 134 126 135 148 154 152 157 166 167
201 215 240 258 272 283 289 293 290 295 302 305 305 302 302 302 300 302 307 299 287 287 266 253 256 265 270 296 306 305 292 254 202 176 168 172 170 173 172 169 173 180 187